Wind_Speed
22 23 25 25 26 27 29 28 28 24 23 21 24 27 27 28 28 29 30 31 32 33 35 36 38 39 39 39 40 40 40 40 40 39 39 38 38 37 37 36 35 35 34 34
21 23 24 24 24 25 26 26 26 25 22 21 25 27 27 28 29 29 30 31 32 33 34 34 36 37 37 37 37 37 37 37 37 36 35 35 35 34 33 32 32 31 31 31
21 22 23 22 22 24 25 24 26 25 21 24 26 26 26 27 29 29 31 32 32 33 33 34 35 35 35 35 34 34 33 33 33 33 33 32 31 30 30 29 29 29 28 28
19 21 21 20 21 23 23 23 24 24 22 24 26 26 26 26 27 28 29 31 32 31 32 32 32 32 32 32 32 32 31 31 31 30 30 29 28 28 27 27 26 26 26 26
18 19 19 20 20 21 21 21 23 22 22 23 24 24 23 24 26 26 27 28 29 28 28 29 29 29 29 30 30 30 29 28 28 28 27 27 26 26 25 24 24 24 24 25
17 17 17 18 19 19 20 21 21 21 20 21 21 21 21 25 26 26 26 26 26 26 26 27 27 27 27 27 27 27 26 26 26 26 25 25 24 23 23 22 22 23 23 24
18 18 17 18 18 19 20 20 19 20 19 19 19 20 22 23 23 24 24 24 24 25 25 25 25 25 25 26 25 25 25 25 25 24 24 23 22 22 21 21 22 23 24 25
20 19 19 19 19 19 19 19 19 19 18 18 18 19 20 21 21 21 22 22 23 23 24 24 24 24 24 24 24 24 24 24 24 24 23 23 22 22 22 22 23 24 25 26
21 21 21 21 21 21 20 20 20 19 19 18 18 18 19 19 20 20 20 21 21 21 21 23 23 24 24 24 24 23 23 23 23 23 23 23 22 23 23 23 24 25 27 27
22 22 23 23 23 22 22 21 21 21 20 20 20 19 19 20 20 20 20 21 21 21 21 22 23 23 23 23 24 24 24 24 24 24 24 24 24 24 25 25 26 28 29 29
25 25 25 24 24 24 24 23 23 23 22 22 21 21 20 20 20 20 20 21 21 21 22 22 23 23 24 24 24 24 25 25 25 25 25 25 26 26 27 28 28 29 30 31
27 27 27 26 27 27 26 26 25 25 24 24 23 22 22 21 21 21 21 22 22 22 23 23 24 24 24 25 25 26 26 26 27 27 27 28 28 28 29 30 30 31 32 32
28 28 28 27 28 29 29 28 28 27 27 26 25 25 24 24 23 23 23 23 24 24 25 25 25 26 27 27 27 27 28 28 29 29 30 30 31 31 32 32 33 33 34 34
29 28 28 29 29 30 30 30 30 29 29 29 28 28 27 26 26 25 25 24 25 25 26 27 27 28 28 28 29 29 30 30 31 32 32 32 33 33 34 35 35 35 36 36
27 27 28 29 30 31 31 31 31 31 30 30 30 29 29 29 28 27 26 26 26 26 27 27 28 29 29 29 30 30 31 31 32 33 33 34 34 35 35 36 36 37 37 37
25 26 27 28 29 31 32 32 32 32 32 31 31 30 30 30 29 29 28 28 27 27 27 27 27 28 29 29 30 31 31 32 33 33 34 35 35 36 36 36 36 37 37 38
22 22 23 24 26 27 29 30 31 32 32 32 32 32 31 31 30 30 29 29 28 28 28 28 28 29 29 30 31 31 32 32 33 33 34 34 34 35 35 35 36 36 37 38
20 21 22 22 22 23 25 26 27 29 32 33 32 32 32 32 31 30 30 29 29 28 28 28 28 28 29 30 30 31 32 32 32 33 33 34 34 34 35 35 35 36 36 37
20 21 20 20 19 20 21 22 24 26 29 30 30 31 31 31 30 29 29 28 28 27 27 27 27 28 28 29 30 30 31 32 32 33 33 34 34 35 35 35 35 35 36 36
21 21 19 19 19 19 19 20 21 22 24 25 26 27 28 29 29 28 28 27 26 26 25 26 26 27 27 28 29 30 31 31 32 33 34 34 35 35 35 35 34 34 35 36
22 21 20 19 19 19 18 18 18 19 20 21 22 24 25 27 28 27 26 25 25 25 25 25 25 26 27 27 28 29 30 31 31 32 32 33 33 33 34 34 34 34 35 35
24 23 22 21 20 20 19 19 19 19 19 20 21 22 23 25 26 27 26 26 25 25 25 25 25 26 27 27 28 28 29 29 29 29 29 30 31 31 32 32 33 33 33 34
26 24 23 22 21 21 21 21 21 20 20 20 21 22 22 22 23 25 25 26 26 25 25 25 25 25 26 26 27 27 27 28 28 28 28 29 29 29 30 30 31 32 32 33
27 26 25 24 23 22 23 23 22 22 22 22 23 23 22 22 23 23 24 25 25 25 24 25 25 25 25 25 26 26 27 27 28 28 28 29 29 29 29 30 31 32 32 33
28 27 26 25 24 24 24 24 24 24 24 23 24 24 24 24 24 24 24 24 24 24 24 24 24 24 25 25 25 26 26 27 28 29 29 29 29 29 29 30 31 31 32 32
30 29 27 26 25 24 24 24 24 24 24 24 24 24 24 24 24 24 24 24 25 25 25 24 24 24 24 25 26 26 27 27 27 28 28 28 28 28 29 29 30 30 31 33
30 30 29 28 28 27 26 25 25 25 26 26 26 25 25 25 25 25 25 25 26 26 26 25 25 25 26 26 27 27 28 28 27 27 27 27 27 28 29 29 30 31 32 33
Wind_Direction
229 230 231 233 236 240 244 248 252 252 252 250 249 248 246 245 243 243 241 241 242 243 245 247 247 248 250 252 254 256 257 258 260 262 263 265 266 268 269 271 273 275 278 280
232 234 235 237 241 244 246 250 254 254 252 251 248 247 247 244 242 240 240 241 242 242 244 245 247 248 250 252 254 256 257 257 258 259 261 262 264 266 268 269 272 274 277 279
236 239 241 242 244 247 249 251 254 255 254 251 251 249 249 247 244 242 241 242 243 243 245 246 246 247 248 250 252 254 255 255 256 257 258 260 261 264 266 268 271 273 276 279
243 243 247 248 247 250 252 253 255 255 255 254 253 251 250 249 247 246 246 245 246 246 247 247 247 247 248 249 250 251 251 253 254 255 256 258 260 262 264 267 269 272 276 279
246 246 246 250 250 251 251 252 255 257 256 257 255 253 251 249 246 246 247 248 247 247 247 246 245 245 245 246 247 248 250 251 253 254 255 257 259 260 263 266 269 273 277 281
250 250 247 246 249 250 251 252 254 258 259 259 256 252 247 245 244 246 247 248 247 246 246 245 244 244 244 245 245 246 248 250 251 252 255 256 257 259 262 265 269 274 279 284
252 252 251 249 250 251 252 255 256 258 259 258 255 250 247 249 248 248 247 248 248 245 244 244 244 244 245 245 244 246 248 249 251 252 254 255 257 259 262 266 271 276 281 285
252 253 253 250 251 252 254 256 256 257 258 257 255 252 250 251 251 250 248 247 245 244 244 244 244 245 246 245 245 246 248 249 251 253 253 255 257 261 265 269 274 278 282 286
251 253 252 251 252 253 253 255 256 256 256 256 255 255 253 251 250 249 247 247 245 244 245 246 247 248 247 246 246 247 249 251 253 254 255 256 259 263 268 272 276 280 284 286
251 251 251 251 252 253 254 255 256 256 256 256 256 256 255 253 250 249 248 246 246 246 247 249 249 250 250 250 249 250 251 254 256 257 259 260 263 267 270 273 277 281 284 287
251 251 253 254 255 254 255 256 256 256 256 255 255 256 254 252 251 250 249 247 248 248 247 249 250 252 253 253 254 254 255 257 258 260 262 264 267 270 273 276 279 282 285 287
254 254 255 255 256 256 255 255 256 255 254 254 254 254 254 253 252 251 250 251 252 251 251 252 253 254 255 256 258 258 259 260 261 263 265 267 270 272 275 278 281 283 285 287
256 255 256 256 256 256 255 255 256 255 253 252 253 253 253 253 253 253 252 253 253 254 255 255 256 257 258 259 260 261 262 263 264 266 268 269 271 273 276 278 281 283 286 288
259 257 257 258 257 256 256 256 256 255 253 251 251 252 253 253 253 254 254 255 256 257 257 257 259 260 261 262 263 264 265 266 267 268 269 271 273 275 277 279 281 283 286 288
264 263 262 260 258 257 256 255 254 254 253 253 252 252 252 253 253 254 255 256 257 258 259 260 260 262 263 264 265 266 267 268 270 271 271 272 274 276 278 280 282 284 286 288
267 268 268 264 262 259 257 256 254 252 252 253 252 251 251 252 253 254 255 256 258 260 262 262 263 263 265 266 267 268 269 270 271 272 273 274 275 276 278 280 282 284 286 287
269 268 270 268 265 262 260 258 254 250 250 251 251 250 250 251 252 254 255 256 258 260 262 264 265 266 267 268 268 269 270 271 272 273 274 275 277 278 279 280 282 284 285 287
270 269 272 272 268 264 261 258 255 250 248 249 251 250 249 250 252 253 255 256 258 260 262 264 266 269 269 269 269 269 270 271 272 273 275 276 277 278 280 281 282 284 285 287
274 274 276 273 268 263 262 260 256 251 248 249 251 250 249 248 250 252 253 255 256 259 261 264 266 269 270 271 271 272 272 272 273 274 275 276 277 278 280 281 282 284 285 287
276 272 272 271 269 268 266 261 258 252 248 248 250 249 247 246 247 249 251 253 256 258 261 264 267 269 270 272 273 274 274 275 276 276 276 276 277 278 278 279 281 283 284 286
275 273 271 270 269 268 267 263 260 255 251 250 249 248 248 248 247 248 249 252 255 258 261 265 268 270 272 274 276 277 278 278 278 279 278 278 278 278 278 279 280 282 284 287
271 271 269 268 267 265 264 262 258 255 254 251 250 250 251 250 248 248 249 252 256 259 263 266 269 272 274 276 277 279 279 279 279 280 280 280 281 280 280 279 280 282 285 288
267 266 266 265 265 263 260 258 256 254 253 251 251 251 251 249 250 251 252 253 256 260 263 267 271 274 276 278 278 279 280 280 281 281 282 282 283 282 281 282 283 285 287 289
266 263 262 261 261 260 257 255 253 253 252 250 251 251 251 251 253 254 255 257 258 260 264 268 270 273 276 279 280 281 281 281 282 282 283 284 283 283 283 283 284 286 288 290
263 262 260 258 258 258 256 254 254 253 252 253 253 253 253 254 255 256 257 258 258 260 263 267 270 274 277 280 282 284 285 284 283 283 283 283 284 285 285 285 286 288 290 292
263 261 260 257 256 256 256 255 255 254 254 253 254 255 255 255 256 258 260 260 260 261 263 266 270 275 279 282 284 286 287 287 286 285 284 284 284 285 287 288 290 291 292 295
264 261 259 257 253 252 254 255 255 254 252 254 256 257 257 257 259 261 263 263 263 263 264 267 271 276 280 283 286 288 288 287 287 287 286 286 287 288 290 291 292 293 295 297
Height
5633 5635 5638 5640 5643 5644 5646 5648 5650 5653 5654 5657 5656 5657 5658 5660 5662 5664 5666 5668 5670 5672 5674 5677 5679 5682 5684 5687 5689 5691 5693 5694 5696 5697 5698 5699 5700 5700 5700 5699 5699 5698 5697 5696
5630 5631 5633 5636 5638 5639 5641 5643 5644 5646 5648 5650 5649 5650 5651 5653 5655 5657 5659 5660 5662 5664 5666 5669 5671 5674 5676 5678 5680 5682 5684 5685 5687 5688 5689 5690 5691 5691 5691 5690 5690 5689 5688 5687
5626 5627 5629 5632 5634 5634 5636 5638 5638 5639 5643 5641 5642 5643 5645 5646 5648 5649 5651 5653 5655 5657 5659 5661 5663 5665 5668 5670 5672 5674 5675 5677 5678 5680 5681 5681 5682 5682 5682 5682 5682 5681 5680 5679
5622 5624 5625 5630 5629 5630 5631 5632 5632 5634 5635 5635 5636 5637 5638 5640 5641 5643 5644 5646 5648 5650 5652 5654 5656 5658 5660 5662 5664 5666 5667 5669 5670 5671 5672 5673 5674 5674 5674 5674 5674 5673 5673 5672
5618 5619 5621 5624 5624 5624 5625 5627 5627 5628 5629 5629 5629 5631 5633 5633 5634 5636 5637 5639 5641 5643 5645 5646 5648 5650 5652 5654 5656 5658 5660 5661 5663 5664 5665 5666 5666 5667 5667 5667 5667 5666 5665 5664
5613 5614 5617 5619 5619 5619 5621 5621 5622 5622 5623 5623 5624 5626 5627 5626 5627 5629 5631 5632 5634 5636 5638 5640 5642 5644 5646 5647 5649 5651 5653 5654 5656 5657 5658 5659 5659 5659 5659 5660 5659 5659 5658 5657
5608 5609 5611 5613 5613 5614 5617 5617 5617 5617 5618 5618 5619 5620 5621 5621 5622 5624 5625 5627 5628 5630 5632 5634 5636 5638 5639 5641 5643 5645 5646 5648 5649 5650 5651 5652 5652 5652 5653 5653 5652 5652 5651 5649
5604 5605 5609 5607 5608 5609 5611 5611 5611 5612 5613 5613 5614 5615 5615 5616 5617 5619 5620 5621 5623 5625 5626 5628 5630 5632 5633 5635 5637 5639 5640 5641 5643 5644 5644 5645 5645 5646 5646 5645 5645 5644 5643 5642
5600 5602 5601 5602 5602 5604 5605 5606 5606 5607 5608 5608 5609 5610 5611 5612 5613 5614 5615 5616 5618 5619 5621 5623 5624 5626 5628 5629 5631 5632 5634 5635 5636 5637 5638 5638 5639 5639 5639 5638 5638 5637 5636 5634
5593 5595 5595 5596 5597 5598 5599 5600 5601 5602 5603 5604 5604 5605 5606 5607 5608 5609 5610 5611 5613 5614 5616 5617 5619 5620 5622 5624 5625 5626 5628 5629 5630 5630 5631 5631 5631 5632 5631 5631 5630 5629 5628 5626
5587 5589 5589 5590 5591 5592 5593 5594 5595 5596 5597 5598 5599 5600 5601 5602 5603 5604 5605 5606 5607 5609 5610 5612 5613 5615 5616 5617 5619 5620 5621 5622 5623 5623 5624 5624 5624 5624 5624 5623 5622 5621 5620 5618
5580 5581 5583 5584 5584 5585 5586 5587 5588 5590 5591 5592 5593 5594 5595 5596 5597 5598 5600 5601 5602 5603 5605 5606 5608 5609 5610 5611 5612 5613 5614 5615 5616 5616 5616 5617 5616 5616 5616 5615 5614 5613 5611 5609
5571 5573 5575 5576 5577 5577 5578 5579 5580 5582 5583 5585 5586 5588 5589 5590 5591 5592 5594 5595 5596 5597 5599 5600 5601 5602 5603 5604 5605 5606 5607 5607 5608 5608 5608 5608 5608 5608 5607 5606 5605 5604 5602 5600
5562 5564 5566 5567 5568 5569 5570 5571 5572 5573 5575 5577 5579 5580 5582 5583 5585 5586 5587 5588 5590 5591 5592 5593 5594 5595 5595 5596 5597 5598 5598 5599 5599 5599 5599 5599 5599 5598 5598 5597 5596 5594 5592 5590
5554 5554 5555 5556 5557 5559 5560 5561 5563 5565 5566 5568 5570 5572 5574 5575 5577 5579 5580 5581 5582 5583 5584 5585 5586 5587 5587 5588 5589 5589 5590 5590 5590 5590 5590 5590 5589 5588 5588 5587 5585 5584 5582 5580
5546 5546 5545 5546 5546 5547 5549 5550 5553 5555 5557 5559 5561 5563 5565 5567 5569 5571 5572 5573 5575 5576 5576 5577 5578 5578 5579 5580 5580 5580 5580 5580 5580 5580 5580 5580 5579 5578 5577 5576 5575 5573 5571 5569
5540 5539 5538 5537 5536 5536 5537 5538 5541 5544 5547 5550 5552 5554 5556 5558 5560 5562 5564 5565 5566 5567 5568 5569 5569 5570 5570 5570 5571 5571 5571 5570 5570 5570 5570 5569 5568 5568 5567 5565 5564 5562 5560 5558
5534 5533 5531 5529 5528 5528 5529 5530 5531 5534 5536 5539 5542 5544 5547 5549 5551 5553 5555 5556 5558 5559 5560 5560 5561 5561 5561 5561 5561 5561 5561 5561 5560 5560 5559 5559 5558 5557 5556 5555 5553 5551 5549 5547
5528 5527 5525 5524 5523 5523 5524 5524 5524 5524 5526 5529 5532 5534 5536 5539 5542 5544 5546 5547 5549 5550 5551 5551 5552 5552 5552 5552 5552 5551 5551 5551 5550 5550 5549 5548 5547 5546 5545 5544 5542 5541 5539 5536
5523 5521 5520 5519 5519 5519 5519 5518 5518 5518 5519 5521 5523 5525 5527 5530 5533 5536 5538 5539 5541 5542 5543 5543 5543 5543 5543 5543 5542 5542 5541 5541 5540 5539 5539 5538 5537 5536 5534 5533 5532 5530 5528 5526
5516 5516 5515 5514 5514 5514 5513 5513 5513 5513 5514 5515 5517 5518 5521 5523 5525 5527 5529 5531 5533 5534 5534 5535 5535 5535 5535 5534 5533 5533 5532 5531 5530 5529 5528 5527 5526 5525 5524 5523 5521 5519 5518 5515
5509 5509 5509 5508 5508 5508 5508 5508 5508 5509 5509 5510 5511 5513 5514 5515 5517 5519 5522 5524 5525 5526 5526 5527 5527 5527 5526 5525 5525 5524 5523 5522 5521 5520 5518 5517 5516 5515 5514 5512 5511 5509 5507 5505
5501 5501 5501 5501 5501 5501 5501 5502 5502 5503 5504 5505 5506 5507 5508 5509 5510 5512 5514 5515 5517 5518 5518 5519 5519 5518 5518 5517 5516 5515 5514 5513 5512 5511 5509 5508 5507 5505 5504 5503 5501 5499 5497 5495
5492 5492 5493 5493 5493 5494 5494 5495 5496 5496 5497 5498 5499 5500 5501 5502 5504 5505 5506 5507 5508 5509 5510 5510 5510 5510 5509 5508 5507 5506 5505 5504 5503 5502 5501 5499 5498 5496 5495 5493 5492 5490 5488 5485
5482 5483 5483 5484 5485 5486 5486 5487 5488 5489 5490 5491 5492 5493 5494 5495 5496 5497 5498 5499 5500 5501 5501 5502 5502 5501 5501 5500 5499 5498 5497 5495 5494 5493 5492 5490 5489 5487 5486 5484 5482 5480 5478 5476
5472 5473 5473 5474 5476 5477 5478 5479 5480 5481 5482 5483 5484 5485 5486 5487 5488 5489 5490 5491 5492 5493 5493 5493 5493 5493 5492 5492 5491 5489 5488 5487 5485 5484 5482 5481 5480 5479 5477 5475 5473 5471 5469 5466
5461 5462 5463 5464 5466 5467 5469 5470 5471 5472 5474 5475 5476 5477 5478 5479 5480 5481 5482 5482 5483 5484 5484 5485 5485 5484 5484 5483 5482 5481 5479 5478 5476 5475 5474 5472 5471 5470 5468 5466 5464 5462 5460 5457